Year,Month,Day,Hour,Minute,Value (Times are PST for windgust in km/hr)
2013,09,27,00,00,8.10
2013,09,27,00,01,9.60
2013,09,27,00,02,11.30
2013,09,27,00,03,11.30
2013,09,27,00,04,9.60
2013,09,27,00,05,11.30
2013,09,27,00,06,9.60
2013,09,27,00,07,6.40
2013,09,27,00,08,4.80
2013,09,27,00,09,11.30
2013,09,27,00,10,4.80
2013,09,27,00,11,3.20
2013,09,27,00,12,4.80
2013,09,27,00,13,11.30
2013,09,27,00,14,6.40
2013,09,27,00,15,6.40
2013,09,27,00,16,6.40
2013,09,27,00,17,8.10
2013,09,27,00,18,8.10
2013,09,27,00,19,9.60
2013,09,27,00,20,4.80
2013,09,27,00,21,3.20
2013,09,27,00,22,3.20
2013,09,27,00,23,6.40
2013,09,27,00,24,8.10
2013,09,27,00,25,8.10
2013,09,27,00,26,8.10
2013,09,27,00,27,9.60
2013,09,27,00,28,8.10
2013,09,27,00,29,16.10
2013,09,27,00,30,9.60
2013,09,27,00,31,4.80
2013,09,27,00,32,6.40
2013,09,27,00,33,4.80
2013,09,27,00,34,8.10
2013,09,27,00,35,4.80
2013,09,27,00,36,4.80
2013,09,27,00,37,6.40
2013,09,27,00,38,9.60
2013,09,27,00,39,6.40
2013,09,27,00,40,4.80
2013,09,27,00,41,4.80
2013,09,27,00,42,4.80
2013,09,27,00,43,4.80
2013,09,27,00,44,9.60
2013,09,27,00,45,6.40
2013,09,27,00,46,6.40
2013,09,27,00,47,9.60
2013,09,27,00,48,6.40
2013,09,27,00,49,6.40
2013,09,27,00,50,8.10
2013,09,27,00,51,6.40
2013,09,27,00,52,8.10
2013,09,27,00,53,6.40
2013,09,27,00,54,9.60
2013,09,27,00,55,6.40
2013,09,27,00,56,8.10
2013,09,27,00,57,11.30
2013,09,27,00,58,6.40
2013,09,27,00,59,8.10
2013,09,27,01,00,9.60
2013,09,27,01,01,9.60
2013,09,27,01,02,14.50
2013,09,27,01,03,8.10
2013,09,27,01,04,6.40
2013,09,27,01,05,8.10
2013,09,27,01,06,9.60
2013,09,27,01,07,6.40
2013,09,27,01,08,11.30
2013,09,27,01,09,6.40
2013,09,27,01,10,8.10
2013,09,27,01,11,8.10
2013,09,27,01,12,6.40
2013,09,27,01,13,6.40
2013,09,27,01,14,11.30
2013,09,27,01,15,8.10
2013,09,27,01,16,11.30
2013,09,27,01,17,11.30
2013,09,27,01,18,8.10
2013,09,27,01,19,9.60
2013,09,27,01,20,11.30
2013,09,27,01,21,9.60
2013,09,27,01,22,4.80
2013,09,27,01,23,6.40
2013,09,27,01,24,8.10
2013,09,27,01,25,9.60
2013,09,27,01,26,6.40
2013,09,27,01,27,4.80
2013,09,27,01,28,6.40
2013,09,27,01,29,8.10
2013,09,27,01,30,6.40
2013,09,27,01,31,4.80
2013,09,27,01,32,3.20
2013,09,27,01,33,4.80
2013,09,27,01,34,3.20
2013,09,27,01,35,3.20
2013,09,27,01,36,4.80
2013,09,27,01,37,4.80
2013,09,27,01,38,1.60
2013,09,27,01,39,3.20
2013,09,27,01,40,3.20
2013,09,27,01,41,3.20
2013,09,27,01,42,3.20
2013,09,27,01,43,4.80
2013,09,27,01,44,6.40
2013,09,27,01,45,3.20
2013,09,27,01,46,6.40
2013,09,27,01,47,11.30
2013,09,27,01,48,4.80
2013,09,27,01,49,3.20
2013,09,27,01,50,6.40
2013,09,27,01,51,8.10
2013,09,27,01,52,12.90
2013,09,27,01,53,11.30
2013,09,27,01,54,4.80
2013,09,27,01,55,11.30
2013,09,27,01,56,16.10
2013,09,27,01,57,16.10
2013,09,27,01,58,12.90
2013,09,27,01,59,11.30
2013,09,27,02,00,8.10
2013,09,27,02,01,9.60
2013,09,27,02,02,19.30
2013,09,27,02,03,22.50
2013,09,27,02,04,20.90
2013,09,27,02,05,14.50
2013,09,27,02,06,11.30
2013,09,27,02,07,14.50
2013,09,27,02,08,12.90
2013,09,27,02,09,11.30
2013,09,27,02,10,16.10
2013,09,27,02,11,14.50
2013,09,27,02,12,17.70
2013,09,27,02,13,16.10
2013,09,27,02,14,16.10
2013,09,27,02,15,16.10
2013,09,27,02,16,11.30
2013,09,27,02,17,9.60
2013,09,27,02,18,16.10
2013,09,27,02,19,19.30
2013,09,27,02,20,19.30
2013,09,27,02,21,8.10
2013,09,27,02,22,11.30
2013,09,27,02,23,14.50
2013,09,27,02,24,17.70
2013,09,27,02,25,17.70
2013,09,27,02,26,19.30
2013,09,27,02,27,11.30
2013,09,27,02,28,9.60
2013,09,27,02,29,6.40
2013,09,27,02,30,14.50
2013,09,27,02,31,14.50
2013,09,27,02,32,20.90
2013,09,27,02,33,12.90
2013,09,27,02,34,17.70
2013,09,27,02,35,11.30
2013,09,27,02,36,9.60
2013,09,27,02,37,8.10
2013,09,27,02,38,14.50
2013,09,27,02,39,9.60
2013,09,27,02,40,9.60
2013,09,27,02,41,8.10
2013,09,27,02,42,8.10
2013,09,27,02,43,6.40
2013,09,27,02,44,9.60
2013,09,27,02,45,9.60
2013,09,27,02,46,9.60
2013,09,27,02,47,8.10
2013,09,27,02,48,8.10
2013,09,27,02,49,4.80
2013,09,27,02,50,11.30
2013,09,27,02,51,8.10
2013,09,27,02,52,11.30
2013,09,27,02,53,14.50
2013,09,27,02,54,9.60
2013,09,27,02,55,11.30
2013,09,27,02,56,6.40
2013,09,27,02,57,4.80
2013,09,27,02,58,11.30
2013,09,27,02,59,6.40
2013,09,27,03,00,8.10
2013,09,27,03,01,11.30
2013,09,27,03,02,8.10
2013,09,27,03,03,9.60
2013,09,27,03,04,8.10
2013,09,27,03,05,4.80
2013,09,27,03,06,11.30
2013,09,27,03,07,8.10
2013,09,27,03,08,4.80
2013,09,27,03,09,9.60
2013,09,27,03,10,6.40
2013,09,27,03,11,6.40
2013,09,27,03,12,4.80
2013,09,27,03,13,6.40
2013,09,27,03,14,6.40
2013,09,27,03,15,4.80
2013,09,27,03,16,6.40
2013,09,27,03,17,6.40
2013,09,27,03,18,6.40
2013,09,27,03,19,3.20
2013,09,27,03,20,3.20
2013,09,27,03,21,3.20
2013,09,27,03,22,4.80
2013,09,27,03,23,3.20
2013,09,27,03,24,8.10
2013,09,27,03,25,4.80
2013,09,27,03,26,4.80
2013,09,27,03,27,4.80
2013,09,27,03,28,6.40
2013,09,27,03,29,9.60
2013,09,27,03,30,8.10
2013,09,27,03,31,8.10
2013,09,27,03,32,8.10
2013,09,27,03,33,8.10
2013,09,27,03,34,4.80
2013,09,27,03,35,6.40
2013,09,27,03,36,6.40
2013,09,27,03,37,4.80
2013,09,27,03,38,8.10
2013,09,27,03,39,6.40
2013,09,27,03,40,9.60
2013,09,27,03,41,6.40
2013,09,27,03,42,4.80
2013,09,27,03,43,6.40
2013,09,27,03,44,6.40
2013,09,27,03,45,6.40
2013,09,27,03,46,8.10
2013,09,27,03,47,4.80
2013,09,27,03,48,8.10
2013,09,27,03,49,8.10
2013,09,27,03,50,6.40
2013,09,27,03,51,6.40
2013,09,27,03,52,8.10
2013,09,27,03,53,8.10
2013,09,27,03,54,4.80
2013,09,27,03,55,4.80
2013,09,27,03,56,4.80
2013,09,27,03,57,4.80
2013,09,27,03,58,4.80
2013,09,27,03,59,4.80
2013,09,27,04,00,3.20
2013,09,27,04,01,8.10
2013,09,27,04,02,6.40
2013,09,27,04,03,6.40
2013,09,27,04,04,3.20
2013,09,27,04,05,4.80
2013,09,27,04,06,3.20
2013,09,27,04,07,4.80
2013,09,27,04,08,4.80
2013,09,27,04,09,1.60
2013,09,27,04,12,1.60
2013,09,27,04,13,4.80
2013,09,27,04,14,4.80
2013,09,27,04,15,4.80
2013,09,27,04,16,4.80
2013,09,27,04,17,4.80
2013,09,27,04,18,4.80
2013,09,27,04,19,4.80
2013,09,27,04,20,4.80
2013,09,27,04,21,4.80
2013,09,27,04,22,3.20
2013,09,27,04,23,3.20
2013,09,27,04,25,3.20
2013,09,27,04,26,4.80
2013,09,27,04,27,4.80
2013,09,27,04,28,3.20
2013,09,27,04,29,1.60
2013,09,27,04,30,1.60
2013,09,27,04,31,3.20
2013,09,27,04,32,3.20
2013,09,27,04,33,3.20
2013,09,27,04,34,3.20
2013,09,27,04,35,1.60
2013,09,27,04,36,4.80
2013,09,27,04,37,3.20
2013,09,27,04,38,3.20
2013,09,27,04,39,4.80
2013,09,27,04,40,3.20
2013,09,27,04,41,1.60
2013,09,27,04,42,1.60
2013,09,27,04,43,3.20
2013,09,27,04,44,4.80
2013,09,27,04,45,3.20
2013,09,27,04,46,3.20
2013,09,27,04,47,3.20
2013,09,27,04,48,4.80
2013,09,27,04,49,4.80
2013,09,27,04,50,3.20
2013,09,27,04,51,3.20
2013,09,27,04,52,3.20
2013,09,27,04,53,3.20
2013,09,27,04,54,4.80
2013,09,27,04,55,6.40
2013,09,27,04,56,4.80
2013,09,27,04,57,4.80
2013,09,27,04,58,6.40
2013,09,27,04,59,4.80
2013,09,27,05,00,4.80
2013,09,27,05,01,3.20
2013,09,27,05,02,3.20
2013,09,27,05,03,6.40
2013,09,27,05,04,4.80
2013,09,27,05,05,6.40
2013,09,27,05,06,4.80
2013,09,27,05,07,4.80
2013,09,27,05,08,4.80
2013,09,27,05,09,8.10
2013,09,27,05,10,6.40
2013,09,27,05,11,6.40
2013,09,27,05,12,6.40
2013,09,27,05,13,4.80
2013,09,27,05,14,4.80
2013,09,27,05,15,3.20
2013,09,27,05,16,3.20
2013,09,27,05,17,1.60
2013,09,27,05,18,3.20
2013,09,27,05,19,3.20
2013,09,27,05,20,3.20
2013,09,27,05,21,3.20
2013,09,27,05,22,3.20
2013,09,27,05,23,1.60
2013,09,27,05,24,3.20
2013,09,27,05,25,4.80
2013,09,27,05,26,4.80
2013,09,27,05,27,4.80
2013,09,27,05,28,6.40
2013,09,27,05,29,3.20
2013,09,27,05,30,4.80
2013,09,27,05,31,4.80
2013,09,27,05,32,4.80
2013,09,27,05,33,4.80
2013,09,27,05,34,3.20
2013,09,27,05,35,4.80
2013,09,27,05,36,9.60
2013,09,27,05,37,4.80
2013,09,27,05,38,3.20
2013,09,27,05,39,3.20
2013,09,27,05,40,4.80
2013,09,27,05,41,8.10
2013,09,27,05,42,6.40
2013,09,27,05,43,9.60
2013,09,27,05,44,8.10
2013,09,27,05,45,8.10
2013,09,27,05,46,4.80
2013,09,27,05,47,6.40
2013,09,27,05,48,8.10
2013,09,27,05,49,9.60
2013,09,27,05,50,6.40
2013,09,27,05,51,6.40
2013,09,27,05,52,4.80
2013,09,27,05,53,4.80
2013,09,27,05,54,6.40
2013,09,27,05,55,6.40
2013,09,27,05,56,3.20
2013,09,27,05,57,3.20
2013,09,27,05,58,4.80
2013,09,27,05,59,6.40
2013,09,27,06,00,6.40
2013,09,27,06,01,3.20
2013,09,27,06,02,3.20
2013,09,27,06,03,3.20
2013,09,27,06,04,1.60
2013,09,27,06,06,1.60
2013,09,27,06,07,3.20
2013,09,27,06,08,4.80
2013,09,27,06,09,3.20
2013,09,27,06,10,1.60
2013,09,27,06,11,3.20
2013,09,27,06,12,3.20
2013,09,27,06,13,1.60
2013,09,27,06,14,6.40
2013,09,27,06,15,4.80
2013,09,27,06,16,1.60
2013,09,27,06,17,1.60
2013,09,27,06,19,1.60
2013,09,27,06,21,1.60
2013,09,27,06,22,3.20
2013,09,27,06,23,4.80
2013,09,27,06,24,3.20
2013,09,27,06,25,3.20
2013,09,27,06,26,3.20
2013,09,27,06,27,4.80
2013,09,27,06,28,4.80
2013,09,27,06,29,4.80
2013,09,27,06,30,3.20
2013,09,27,06,31,3.20
2013,09,27,06,32,3.20
2013,09,27,06,33,1.60
2013,09,27,06,36,1.60
2013,09,27,06,37,3.20
2013,09,27,06,38,3.20
2013,09,27,06,39,3.20
2013,09,27,06,40,1.60
2013,09,27,06,41,6.40
2013,09,27,06,42,4.80
2013,09,27,06,43,6.40
2013,09,27,06,44,3.20
2013,09,27,06,45,3.20
2013,09,27,06,46,3.20
2013,09,27,06,47,1.60
2013,09,27,06,48,4.80
2013,09,27,06,49,4.80
2013,09,27,06,50,3.20
2013,09,27,06,51,1.60
2013,09,27,06,52,3.20
2013,09,27,06,53,1.60
2013,09,27,06,54,1.60
2013,09,27,06,55,3.20
2013,09,27,06,56,3.20
2013,09,27,06,57,3.20
2013,09,27,06,58,3.20
2013,09,27,06,59,3.20
2013,09,27,07,00,4.80
2013,09,27,07,01,6.40
2013,09,27,07,02,6.40
2013,09,27,07,03,4.80
2013,09,27,07,04,4.80
2013,09,27,07,05,3.20
2013,09,27,07,06,4.80
2013,09,27,07,07,3.20
2013,09,27,07,08,4.80
2013,09,27,07,09,3.20
2013,09,27,07,10,3.20
2013,09,27,07,11,1.60
2013,09,27,07,12,3.20
2013,09,27,07,13,3.20
2013,09,27,07,14,3.20
2013,09,27,07,15,4.80
2013,09,27,07,16,3.20
2013,09,27,07,17,3.20
2013,09,27,07,18,3.20
2013,09,27,07,19,1.60
2013,09,27,07,20,3.20
2013,09,27,07,21,6.40
2013,09,27,07,22,4.80
2013,09,27,07,23,3.20
2013,09,27,07,24,1.60
2013,09,27,07,25,4.80
2013,09,27,07,26,4.80
2013,09,27,07,27,4.80
2013,09,27,07,28,4.80
2013,09,27,07,29,1.60
2013,09,27,07,30,3.20
2013,09,27,07,31,3.20
2013,09,27,07,32,3.20
2013,09,27,07,33,3.20
2013,09,27,07,34,1.60
2013,09,27,07,35,4.80
2013,09,27,07,36,3.20
2013,09,27,07,37,3.20
2013,09,27,07,38,1.60
2013,09,27,07,39,1.60
2013,09,27,07,40,1.60
2013,09,27,07,41,1.60
2013,09,27,07,42,4.80
2013,09,27,07,43,1.60
2013,09,27,07,44,4.80
2013,09,27,07,45,3.20
2013,09,27,07,46,6.40
2013,09,27,07,47,6.40
2013,09,27,07,48,4.80
2013,09,27,07,49,4.80
2013,09,27,07,50,4.80
2013,09,27,07,51,3.20
2013,09,27,07,52,3.20
2013,09,27,07,53,4.80
2013,09,27,07,54,4.80
2013,09,27,07,55,3.20
2013,09,27,07,56,4.80
2013,09,27,07,57,4.80
2013,09,27,07,58,3.20
2013,09,27,07,59,4.80
2013,09,27,08,00,3.20
2013,09,27,08,01,4.80
2013,09,27,08,02,4.80
2013,09,27,08,03,3.20
2013,09,27,08,04,1.60
2013,09,27,08,05,3.20
2013,09,27,08,06,4.80
2013,09,27,08,07,9.60
2013,09,27,08,08,9.60
2013,09,27,08,09,4.80
2013,09,27,08,10,4.80
2013,09,27,08,11,3.20
2013,09,27,08,12,6.40
2013,09,27,08,13,6.40
2013,09,27,08,14,6.40
2013,09,27,08,15,3.20
2013,09,27,08,16,1.60
2013,09,27,08,17,6.40
2013,09,27,08,18,6.40
2013,09,27,08,19,6.40
2013,09,27,08,20,4.80
2013,09,27,08,21,8.10
2013,09,27,08,22,4.80
2013,09,27,08,23,6.40
2013,09,27,08,24,3.20
2013,09,27,08,25,1.60
2013,09,27,08,26,1.60
2013,09,27,08,27,1.60
2013,09,27,08,28,1.60
2013,09,27,08,29,4.80
2013,09,27,08,30,3.20
2013,09,27,08,31,4.80
2013,09,27,08,32,4.80
2013,09,27,08,33,3.20
2013,09,27,08,34,1.60
2013,09,27,08,35,1.60
2013,09,27,08,36,3.20
2013,09,27,08,37,1.60
2013,09,27,08,38,1.60
2013,09,27,08,40,3.20
2013,09,27,08,41,3.20
2013,09,27,08,42,3.20
2013,09,27,08,43,4.80
2013,09,27,08,44,8.10
2013,09,27,08,45,4.80
2013,09,27,08,46,3.20
2013,09,27,08,47,1.60
2013,09,27,08,48,3.20
2013,09,27,08,49,6.40
2013,09,27,08,50,6.40
2013,09,27,08,51,3.20
2013,09,27,08,52,4.80
2013,09,27,08,53,1.60
2013,09,27,08,54,1.60
2013,09,27,08,55,4.80
2013,09,27,08,56,4.80
2013,09,27,08,57,4.80
2013,09,27,08,58,3.20
2013,09,27,08,59,4.80
2013,09,27,09,00,1.60
2013,09,27,09,01,3.20
2013,09,27,09,02,3.20
2013,09,27,09,03,4.80
2013,09,27,09,04,3.20
2013,09,27,09,05,1.60
2013,09,27,09,06,4.80
2013,09,27,09,07,3.20
2013,09,27,09,08,4.80
2013,09,27,09,09,4.80
2013,09,27,09,10,4.80
2013,09,27,09,11,4.80
2013,09,27,09,13,1.60
2013,09,27,09,14,3.20
2013,09,27,09,15,3.20
2013,09,27,09,16,4.80
2013,09,27,09,17,3.20
2013,09,27,09,18,4.80
2013,09,27,09,19,4.80
2013,09,27,09,20,3.20
2013,09,27,09,21,3.20
2013,09,27,09,22,4.80
2013,09,27,09,23,3.20
2013,09,27,09,24,4.80
2013,09,27,09,25,3.20
2013,09,27,09,26,1.60
2013,09,27,09,27,3.20
2013,09,27,09,28,4.80
2013,09,27,09,29,4.80
2013,09,27,09,30,4.80
2013,09,27,09,31,1.60
2013,09,27,09,32,1.60
2013,09,27,09,33,4.80
2013,09,27,09,34,4.80
2013,09,27,09,35,3.20
2013,09,27,09,36,4.80
2013,09,27,09,37,3.20
2013,09,27,09,38,3.20
2013,09,27,09,39,3.20
2013,09,27,09,40,1.60
2013,09,27,09,41,1.60
2013,09,27,09,42,3.20
2013,09,27,09,43,4.80
2013,09,27,09,44,3.20
2013,09,27,09,45,3.20
2013,09,27,09,46,1.60
2013,09,27,09,47,3.20
2013,09,27,09,48,4.80
2013,09,27,09,49,6.40
2013,09,27,09,50,4.80
2013,09,27,09,51,3.20
2013,09,27,09,52,4.80
2013,09,27,09,53,6.40
2013,09,27,09,54,3.20
2013,09,27,09,55,3.20
2013,09,27,09,56,3.20
2013,09,27,09,57,3.20
2013,09,27,09,58,3.20
2013,09,27,09,59,6.40
2013,09,27,10,00,4.80
2013,09,27,10,01,3.20
2013,09,27,10,02,3.20
2013,09,27,10,03,6.40
2013,09,27,10,04,8.10
2013,09,27,10,05,8.10
2013,09,27,10,06,8.10
2013,09,27,10,07,4.80
2013,09,27,10,08,4.80
2013,09,27,10,09,8.10
2013,09,27,10,10,8.10
2013,09,27,10,11,6.40
2013,09,27,10,12,8.10
2013,09,27,10,13,12.90
2013,09,27,10,14,9.60
2013,09,27,10,15,4.80
2013,09,27,10,16,6.40
2013,09,27,10,17,6.40
2013,09,27,10,18,6.40
2013,09,27,10,19,4.80
2013,09,27,10,20,6.40
2013,09,27,10,21,3.20
2013,09,27,10,22,3.20
2013,09,27,10,23,3.20
2013,09,27,10,24,3.20
2013,09,27,10,25,3.20
2013,09,27,10,26,4.80
2013,09,27,10,27,6.40
2013,09,27,10,28,6.40
2013,09,27,10,29,4.80
2013,09,27,10,30,4.80
2013,09,27,10,31,3.20
2013,09,27,10,32,4.80
2013,09,27,10,33,3.20
2013,09,27,10,34,4.80
2013,09,27,10,35,3.20
2013,09,27,10,36,4.80
2013,09,27,10,37,9.60
2013,09,27,10,38,8.10
2013,09,27,10,39,4.80
2013,09,27,10,40,6.40
2013,09,27,10,41,4.80
2013,09,27,10,42,6.40
2013,09,27,10,43,4.80
2013,09,27,10,44,4.80
2013,09,27,10,45,4.80
2013,09,27,10,46,4.80
2013,09,27,10,47,4.80
2013,09,27,10,48,8.10
2013,09,27,10,49,4.80
2013,09,27,10,50,8.10
2013,09,27,10,51,6.40
2013,09,27,10,52,6.40
2013,09,27,10,53,4.80
2013,09,27,10,54,3.20
2013,09,27,10,55,4.80
2013,09,27,10,56,4.80
2013,09,27,10,57,4.80
2013,09,27,10,58,4.80
2013,09,27,10,59,3.20
2013,09,27,11,00,3.20
2013,09,27,11,01,4.80
2013,09,27,11,02,6.40
2013,09,27,11,03,4.80
2013,09,27,11,04,3.20
2013,09,27,11,05,4.80
2013,09,27,11,06,1.60
2013,09,27,11,07,3.20
2013,09,27,11,08,4.80
2013,09,27,11,09,6.40
2013,09,27,11,10,4.80
2013,09,27,11,11,4.80
2013,09,27,11,12,3.20
2013,09,27,11,13,1.60
2013,09,27,11,14,3.20
2013,09,27,11,15,4.80
2013,09,27,11,16,6.40
2013,09,27,11,17,4.80
2013,09,27,11,18,4.80
2013,09,27,11,19,3.20
2013,09,27,11,20,4.80
2013,09,27,11,21,4.80
2013,09,27,11,22,4.80
2013,09,27,11,23,6.40
2013,09,27,11,24,4.80
2013,09,27,11,25,3.20
2013,09,27,11,26,3.20
2013,09,27,11,27,3.20
2013,09,27,11,28,3.20
2013,09,27,11,29,4.80
2013,09,27,11,30,6.40
2013,09,27,11,31,8.10
2013,09,27,11,32,4.80
2013,09,27,11,33,3.20
2013,09,27,11,34,8.10
2013,09,27,11,35,9.60
2013,09,27,11,36,6.40
2013,09,27,11,37,4.80
2013,09,27,11,38,4.80
2013,09,27,11,39,3.20
2013,09,27,11,40,6.40
2013,09,27,11,41,6.40
2013,09,27,11,42,8.10
2013,09,27,11,43,8.10
2013,09,27,11,44,4.80
2013,09,27,11,45,3.20
2013,09,27,11,46,6.40
2013,09,27,11,47,6.40
2013,09,27,11,48,4.80
2013,09,27,11,49,4.80
2013,09,27,11,50,8.10
2013,09,27,11,51,6.40
2013,09,27,11,52,9.60
2013,09,27,11,53,9.60
2013,09,27,11,54,6.40
2013,09,27,11,55,4.80
2013,09,27,11,56,6.40
2013,09,27,11,57,6.40
2013,09,27,11,58,8.10
2013,09,27,11,59,4.80
2013,09,27,12,00,6.40
2013,09,27,12,01,4.80
2013,09,27,12,02,6.40
2013,09,27,12,03,9.60
2013,09,27,12,04,8.10
2013,09,27,12,05,8.10
2013,09,27,12,06,6.40
2013,09,27,12,07,4.80
2013,09,27,12,08,4.80
2013,09,27,12,09,9.60
2013,09,27,12,10,8.10
2013,09,27,12,11,8.10
2013,09,27,12,12,4.80
2013,09,27,12,13,6.40
2013,09,27,12,14,4.80
2013,09,27,12,15,4.80
2013,09,27,12,16,6.40
2013,09,27,12,17,6.40
2013,09,27,12,18,4.80
2013,09,27,12,19,4.80
2013,09,27,12,20,6.40
2013,09,27,12,21,4.80
2013,09,27,12,22,3.20
2013,09,27,12,23,3.20
2013,09,27,12,24,9.60
2013,09,27,12,25,4.80
2013,09,27,12,26,4.80
2013,09,27,12,27,8.10
2013,09,27,12,28,6.40
2013,09,27,12,29,8.10
2013,09,27,12,30,8.10
2013,09,27,12,31,4.80
2013,09,27,12,32,6.40
2013,09,27,12,33,6.40
2013,09,27,12,34,6.40
2013,09,27,12,35,3.20
2013,09,27,12,36,6.40
2013,09,27,12,37,9.60
2013,09,27,12,38,6.40
2013,09,27,12,39,4.80
2013,09,27,12,40,6.40
2013,09,27,12,41,4.80
2013,09,27,12,42,6.40
2013,09,27,12,43,6.40
2013,09,27,12,44,6.40
2013,09,27,12,45,6.40
2013,09,27,12,46,4.80
2013,09,27,12,47,6.40
2013,09,27,12,48,8.10
2013,09,27,12,49,8.10
2013,09,27,12,50,4.80
2013,09,27,12,51,6.40
2013,09,27,12,52,6.40
2013,09,27,12,53,4.80
2013,09,27,12,54,4.80
2013,09,27,12,55,3.20
2013,09,27,12,56,8.10
2013,09,27,12,57,8.10
2013,09,27,12,58,9.60
2013,09,27,12,59,4.80
2013,09,27,13,00,6.40
2013,09,27,13,01,4.80
2013,09,27,13,02,3.20
2013,09,27,13,03,6.40
2013,09,27,13,04,6.40
2013,09,27,13,05,3.20
2013,09,27,13,06,1.60
2013,09,27,13,07,6.40
2013,09,27,13,08,8.10
2013,09,27,13,09,4.80
2013,09,27,13,10,4.80
2013,09,27,13,11,3.20
2013,09,27,13,12,3.20
2013,09,27,13,13,3.20
2013,09,27,13,14,3.20
2013,09,27,13,15,1.60
2013,09,27,13,16,4.80
2013,09,27,13,17,3.20
2013,09,27,13,18,3.20
2013,09,27,13,19,4.80
2013,09,27,13,20,4.80
2013,09,27,13,21,4.80
2013,09,27,13,22,4.80
2013,09,27,13,23,4.80
2013,09,27,13,24,3.20
2013,09,27,13,25,6.40
2013,09,27,13,26,6.40
2013,09,27,13,27,8.10
2013,09,27,13,28,8.10
2013,09,27,13,29,4.80
2013,09,27,13,30,4.80
2013,09,27,13,31,6.40
2013,09,27,13,32,6.40
2013,09,27,13,33,4.80
2013,09,27,13,34,4.80
2013,09,27,13,35,4.80
2013,09,27,13,36,6.40
2013,09,27,13,37,6.40
2013,09,27,13,38,4.80
2013,09,27,13,39,4.80
2013,09,27,13,40,6.40
2013,09,27,13,41,6.40
2013,09,27,13,42,4.80
2013,09,27,13,43,4.80
2013,09,27,13,44,4.80
2013,09,27,13,45,4.80
2013,09,27,13,46,6.40
2013,09,27,13,47,3.20
2013,09,27,13,48,4.80
2013,09,27,13,49,3.20
2013,09,27,13,50,6.40
2013,09,27,13,51,3.20
2013,09,27,13,52,3.20
2013,09,27,13,53,3.20
2013,09,27,13,54,3.20
2013,09,27,13,55,3.20
2013,09,27,13,56,4.80
2013,09,27,13,57,4.80
2013,09,27,13,58,3.20
2013,09,27,13,59,4.80
2013,09,27,14,00,4.80
2013,09,27,14,01,3.20
2013,09,27,14,02,1.60
2013,09,27,14,03,1.60
2013,09,27,14,04,1.60
2013,09,27,14,05,1.60
2013,09,27,14,06,3.20
2013,09,27,14,07,4.80
2013,09,27,14,08,3.20
2013,09,27,14,09,4.80
2013,09,27,14,10,6.40
2013,09,27,14,11,4.80
2013,09,27,14,12,6.40
2013,09,27,14,13,4.80
2013,09,27,14,14,6.40
2013,09,27,14,15,4.80
2013,09,27,14,16,3.20
2013,09,27,14,17,3.20
2013,09,27,14,18,4.80
2013,09,27,14,19,4.80
2013,09,27,14,20,4.80
2013,09,27,14,21,4.80
2013,09,27,14,22,4.80
2013,09,27,14,23,4.80
2013,09,27,14,24,4.80
2013,09,27,14,25,3.20
2013,09,27,14,26,6.40
2013,09,27,14,27,6.40
2013,09,27,14,28,6.40
2013,09,27,14,29,3.20
2013,09,27,14,30,4.80
2013,09,27,14,31,4.80
2013,09,27,14,32,4.80
2013,09,27,14,33,4.80
2013,09,27,14,34,3.20
2013,09,27,14,35,3.20
2013,09,27,14,36,3.20
2013,09,27,14,37,4.80
2013,09,27,14,38,4.80
2013,09,27,14,39,4.80
2013,09,27,14,40,4.80
2013,09,27,14,41,4.80
2013,09,27,14,42,3.20
2013,09,27,14,43,3.20
2013,09,27,14,44,3.20
2013,09,27,14,45,3.20
2013,09,27,14,46,1.60
2013,09,27,14,47,3.20
2013,09,27,14,48,3.20
2013,09,27,14,49,4.80
2013,09,27,14,50,3.20
2013,09,27,14,51,3.20
2013,09,27,14,52,1.60
2013,09,27,14,53,3.20
2013,09,27,14,54,1.60
2013,09,27,14,55,4.80
2013,09,27,14,56,3.20
2013,09,27,14,57,3.20
2013,09,27,14,58,4.80
2013,09,27,14,59,4.80
2013,09,27,15,00,3.20
2013,09,27,15,01,3.20
2013,09,27,15,02,4.80
2013,09,27,15,03,4.80
2013,09,27,15,04,8.10
2013,09,27,15,05,4.80
2013,09,27,15,06,4.80
2013,09,27,15,07,4.80
2013,09,27,15,08,4.80
2013,09,27,15,09,6.40
2013,09,27,15,10,4.80
2013,09,27,15,11,6.40
2013,09,27,15,12,6.40
2013,09,27,15,13,8.10
2013,09,27,15,14,6.40
2013,09,27,15,15,3.20
2013,09,27,15,16,6.40
2013,09,27,15,17,9.60
2013,09,27,15,18,8.10
2013,09,27,15,19,6.40
2013,09,27,15,20,4.80
2013,09,27,15,21,4.80
2013,09,27,15,22,4.80
2013,09,27,15,23,3.20
2013,09,27,15,24,8.10
2013,09,27,15,25,1.60
2013,09,27,15,26,3.20
2013,09,27,15,27,4.80
2013,09,27,15,28,4.80
2013,09,27,15,29,4.80
2013,09,27,15,30,4.80
2013,09,27,15,31,3.20
2013,09,27,15,32,4.80
2013,09,27,15,33,6.40
2013,09,27,15,34,3.20
2013,09,27,15,35,3.20
2013,09,27,15,36,4.80
2013,09,27,15,37,4.80
2013,09,27,15,38,4.80
2013,09,27,15,39,4.80
2013,09,27,15,40,6.40
2013,09,27,15,41,4.80
2013,09,27,15,42,4.80
2013,09,27,15,43,4.80
2013,09,27,15,44,6.40
2013,09,27,15,45,3.20
2013,09,27,15,46,1.60
2013,09,27,15,47,3.20
2013,09,27,15,48,4.80
2013,09,27,15,49,6.40
2013,09,27,15,50,6.40
2013,09,27,15,51,6.40
2013,09,27,15,52,3.20
2013,09,27,15,53,3.20
2013,09,27,15,54,4.80
2013,09,27,15,55,3.20
2013,09,27,15,56,3.20
2013,09,27,15,57,6.40
2013,09,27,15,58,4.80
2013,09,27,15,59,4.80
2013,09,27,16,00,3.20
2013,09,27,16,01,6.40
2013,09,27,16,02,4.80
2013,09,27,16,03,3.20
2013,09,27,16,04,6.40
2013,09,27,16,05,6.40
2013,09,27,16,06,9.60
2013,09,27,16,07,8.10
2013,09,27,16,08,8.10
2013,09,27,16,09,6.40
2013,09,27,16,10,3.20
2013,09,27,16,11,1.60
2013,09,27,16,12,3.20
2013,09,27,16,13,1.60
2013,09,27,16,14,3.20
2013,09,27,16,15,3.20
2013,09,27,16,16,3.20
2013,09,27,16,17,3.20
2013,09,27,16,18,1.60
2013,09,27,16,19,3.20
2013,09,27,16,20,4.80
2013,09,27,16,21,4.80
2013,09,27,16,22,3.20
2013,09,27,16,23,6.40
2013,09,27,16,24,6.40
2013,09,27,16,25,4.80
2013,09,27,16,26,1.60
2013,09,27,16,27,3.20
2013,09,27,16,28,4.80
2013,09,27,16,29,3.20
2013,09,27,16,30,4.80
2013,09,27,16,31,4.80
2013,09,27,16,32,6.40
2013,09,27,16,33,4.80
2013,09,27,16,34,4.80
2013,09,27,16,35,6.40
2013,09,27,16,36,4.80
2013,09,27,16,37,1.60
2013,09,27,16,38,3.20
2013,09,27,16,39,3.20
2013,09,27,16,40,4.80
2013,09,27,16,41,6.40
2013,09,27,16,42,4.80
2013,09,27,16,43,3.20
2013,09,27,16,44,4.80
2013,09,27,16,45,6.40
2013,09,27,16,46,8.10
2013,09,27,16,47,8.10
2013,09,27,16,48,8.10
2013,09,27,16,49,8.10
2013,09,27,16,50,3.20
2013,09,27,16,51,4.80
2013,09,27,16,52,3.20
2013,09,27,16,53,3.20
2013,09,27,16,54,6.40
2013,09,27,16,55,8.10
2013,09,27,16,56,6.40
2013,09,27,16,57,3.20
2013,09,27,16,58,4.80
2013,09,27,16,59,6.40
2013,09,27,17,00,6.40
2013,09,27,17,01,9.60
2013,09,27,17,02,8.10
2013,09,27,17,03,11.30
2013,09,27,17,04,8.10
2013,09,27,17,05,6.40
2013,09,27,17,06,6.40
2013,09,27,17,07,4.80
2013,09,27,17,08,3.20
2013,09,27,17,09,3.20
2013,09,27,17,10,6.40
2013,09,27,17,11,4.80
2013,09,27,17,12,3.20
2013,09,27,17,13,4.80
2013,09,27,17,14,3.20
2013,09,27,17,15,3.20
2013,09,27,17,16,4.80
2013,09,27,17,17,4.80
2013,09,27,17,18,3.20
2013,09,27,17,19,3.20
2013,09,27,17,20,3.20
2013,09,27,17,21,4.80
2013,09,27,17,22,3.20
2013,09,27,17,23,1.60
2013,09,27,17,24,1.60
2013,09,27,17,25,1.60
2013,09,27,17,29,1.60
2013,09,27,17,32,1.60
2013,09,27,17,38,1.60
2013,09,27,17,39,3.20
2013,09,27,17,40,3.20
2013,09,27,17,41,4.80
2013,09,27,17,42,4.80
2013,09,27,17,43,1.60
2013,09,27,17,44,3.20
2013,09,27,17,45,3.20
2013,09,27,17,46,4.80
2013,09,27,17,47,3.20
2013,09,27,17,48,6.40
2013,09,27,17,49,6.40
2013,09,27,17,50,3.20
2013,09,27,17,51,3.20
2013,09,27,17,52,3.20
2013,09,27,17,53,1.60
2013,09,27,17,54,1.60
2013,09,27,17,55,1.60
2013,09,27,17,57,3.20
2013,09,27,17,58,1.60
2013,09,27,17,59,3.20
2013,09,27,18,00,1.60
2013,09,27,18,01,3.20
2013,09,27,18,02,3.20
2013,09,27,18,03,1.60
2013,09,27,18,04,1.60
2013,09,27,18,05,1.60
2013,09,27,18,06,4.80
2013,09,27,18,07,3.20
2013,09,27,18,08,3.20
2013,09,27,18,09,1.60
2013,09,27,18,10,4.80
2013,09,27,18,11,3.20
2013,09,27,18,12,3.20
2013,09,27,18,13,3.20
2013,09,27,18,14,3.20
2013,09,27,18,15,3.20
2013,09,27,18,16,3.20
2013,09,27,18,17,1.60
2013,09,27,18,18,4.80
2013,09,27,18,19,4.80
2013,09,27,18,20,3.20
2013,09,27,18,21,4.80
2013,09,27,18,22,1.60
2013,09,27,18,23,3.20
2013,09,27,18,24,1.60